This demonstration page uses our WeatherBlox Daily Observations layout. Learn more.

Left ArrowRight Arrow

34.74481, -87.66753

Hourly Observations for September 4, 2020

Temp ( °F °C ) Dew Point ( °F °C ) Humidity (%) Winds ( mph kmh ) Pressure ( in mb ) Visibility ( mi km ) Precip ( " mm )
12:53 am 00:53 Clear 75 23.9 72 22.2 90 90 Calm 30.00 1016 9 14 0.00 0.00
1:53 am 01:53 Clear 75 23.9 72 22.2 90 90 Calm 30.01 1016 10 16 0.00 0.00
2:53 am 02:53 Mostly Clear 75 23.9 71 21.7 88 88 Calm 30.01 1016 9 14 0.00 0.00
3:53 am 03:53 Partly Cloudy 75 23.9 72 22.2 90 90 Calm 30.02 1017 8 13 0.00 0.00
4:53 am 04:53 Mostly Cloudy 76 24.4 72 22.2 88 88 Calm 30.04 1017 9 14 0.00 0.00
5:53 am 05:53 Partly Cloudy 76 24.4 73 22.8 91 91 NW 3 6 30.05 1018 10 16 0.00 0.00
6:53 am 06:53 Sunny 76 24.4 73 22.8 91 91 WNW 5 7 30.06 1018 8 13 0.00 0.00
7:53 am 07:53 Partly Cloudy 78 25.6 74 23.3 87 87 Calm 30.08 1019 9 14 0.00 0.00
8:53 am 08:53 Sunny 81 27.2 75 23.9 82 82 VRB 3 6 30.08 1019 10 16 0.00 0.00
9:53 am 09:53 Partly Cloudy 84 28.9 73 22.8 70 70 WNW 6 9 30.09 1019 10 16 0.00 0.00
10:53 am 10:53 Partly Cloudy 86 30 72 22.2 63 63 NW 6 9 30.10 1019 10 16 0.00 0.00
11:05 am 11:05 Mostly Cloudy 85 29.4 73 22.8 68 68 NNW 7 11 30.10 1019 10 16 0.00 0.00
11:16 am 11:16 undefined 86 30 73 22.8 65 65 undefined N/A 30.10 1019 N/A 0.00 0.00
11:53 am 11:53 undefined 88 31.1 71 21.7 57 57 NNW 8 13 30.11 1020 10 16 0.00 0.00
12:53 pm 12:53 Partly Cloudy 89 31.7 71 21.7 55 55 NW 7 11 30.09 1019 10 16 0.00 0.00
1:53 pm 13:53 Mostly Sunny 91 32.8 73 22.8 56 56 NW 8 13 30.08 1019 10 16 0.00 0.00
2:17 pm 14:17 Mostly Cloudy with Nearby Thunderstorms 91 32.8 71 21.7 52 52 NNW 8 13 30.06 1018 10 16 0.00 0.00
2:53 pm 14:53 Cloudy with Rain 80 26.7 69 20.6 69 69 NNW 10 17 30.09 1019 5 8 0.02 0.51
3:09 pm 15:09 Mostly Cloudy with Nearby Thunderstorms 81 27.2 72 22.2 74 74 NNW 5 7 30.08 1019 10 16 0.00 0.00
3:38 pm 15:38 Partly Cloudy 88 31.1 74 23.3 63 63 VRB 3 6 30.07 1018 10 16 0.00 0.00
3:53 pm 15:53 Mostly Sunny 88 31.1 74 23.3 63 63 NNW 7 11 30.08 1019 10 16 0.00 0.00
4:53 pm 16:53 Mostly Sunny 89 31.7 74 23.3 61 61 VRB 3 6 30.07 1018 10 16 0.00 0.00
5:53 pm 17:53 Partly Cloudy 87 30.6 73 22.8 63 63 N 12 19 30.08 1019 10 16 0.00 0.00
6:53 pm 18:53 Sunny 83 28.3 72 22.2 70 70 N 8 13 30.10 1019 10 16 0.00 0.00
7:53 pm 19:53 Clear 81 27.2 71 21.7 72 72 N 7 11 30.11 1020 10 16 0.00 0.00
8:53 pm 20:53 Clear 78 25.6 66 18.9 67 67 NNE 7 11 30.15 1021 10 16 0.00 0.00
9:53 pm 21:53 Clear 76 24.4 64 17.8 67 67 NNE 5 7 30.18 1022 10 16 0.00 0.00
10:53 pm 22:53 Clear 73 22.8 63 17.2 71 71 Calm 30.19 1023 10 16 0.00 0.00
11:53 pm 23:53 Clear 70 21.1 62 16.7 76 76 ENE 3 6 30.22 1023 10 16 0.00 0.00

Powered by AerisWeather